"2009-08-25 00:00:00",1181089,7.322,187.1,2.842,0.147,19.49,108.081,19.97,20.97,39.18,0,110.8,13.25,20.79,149.1
"2009-08-25 00:00:30",1181090,7.697,183.8,2.591,0.329,19.53,108.0836,19.97,20.98,38.82,0,110.8,13.25,20.80,145.8
"2009-08-25 00:01:00",1181091,7.692,183.3,2.443,0.268,19.48,108.0963,20.01,20.99,38.84,0,110.8,13.25,20.83,145.3
"2009-08-25 00:01:30",1181092,7.777,185.2,3.642,0.273,19.47,108.1028,20.02,20.99,38.77,0,110.8,13.25,20.85,147.2
"2009-08-25 00:02:00",1181093,7.238,185,1.526,0.186,19.41,108.1142,20.05,20.99,38.77,0,110.8,13.25,20.87,147.0
"2009-08-25 00:02:30",1181094,7.398,184.2,2.038,0.265,19.49,108.1151,20.05,21.01,38.78,0,110.8,13.25,20.88,146.2
"2009-08-25 00:03:00",1181095,7.595,178.6,1.604,0.249,19.53,108.1175,20.06,21.01,38.36,0,110.8,13.25,20.88,140.6
"2009-08-25 00:03:30",1181096,7.259,182.2,4.171,0.37,19.53,108.1151,20.05,21.02,38.29,0,110.8,13.25,20.88,144.2
"2009-08-25 00:04:00",1181097,6.987,188.3,2.165,0.136,19.45,108.1211,20.07,21.04,38.2,0,110.8,13.25,20.89,150.3
"2009-08-25 00:04:30",1181098,7.177,188.6,1.608,0.216,19.44,108.1283,20.09,21.05,38.3,0,110.8,13.25,20.91,150.6
"2009-08-25 00:05:00",1181099,7.319,183.1,1.509,0.226,19.38,108.1472,20.14,21.07,38.37,0,110.8,13.25,20.96,145.1
"2009-08-25 00:05:30",1181100,7.189,185.1,2.124,0.177,19.51,108.1522,20.15,21.07,38.28,0,110.8,13.25,20.97,147.1
"2009-08-25 00:06:00",1181101,7.314,185.6,1.703,0.323,19.41,108.1498,20.14,21.07,38.25,0,110.8,13.25,20.97,147.6
"2009-08-25 00:06:30",1181102,7.565,184,1.08,0.181,19.51,108.154,20.15,21.09,38.15,0,110.8,13.25,20.98,146.0
"2009-08-25 00:07:00",1181103,7.409,185.2,1.794,0.169,19.5,108.1531,20.15,21.1,37.85,0,110.8,13.25,20.97,147.2
"2009-08-25 00:07:30",1181104,7.604,183.2,2.244,0.126,19.47,108.1575,20.16,21.12,37.78,0,110.8,13.25,20.99,145.2
"2009-08-25 00:08:00",1181105,7.497,184,1.174,0.295,19.5,108.1752,20.21,21.15,37.47,0,110.8,13.25,21.03,146.0
"2009-08-25 00:08:30",1181106,7.771,185,1.15,0.229,19.45,108.181,20.22,21.15,37.47,0,110.8,13.25,21.05,147.0
"2009-08-25 00:09:00",1181107,7.985,183.9,0.854,0.123,19.47,108.1859,20.24,21.16,37.26,0,110.8,13.25,21.06,145.9
"2009-08-25 00:09:30",1181108,7.839,186.1,0.752,0.192,19.46,108.1881,20.24,21.18,37.2,0,110.8,13.24,21.06,148.1
"2009-08-25 00:10:00",1181109,8.35,184.5,2.802,0.165,19.32,108.1887,20.24,21.17,37.58,0,110.8,13.24,21.07,146.5
"2009-08-25 00:10:30",1181110,7.996,176,3.928,0.666,18.97,108.1887,20.24,21.18,40,0,110.8,13.24,21.07,138.0
"2009-08-25 00:11:00",1181111,6.457,172.7,2.856,0.41,18.76,108.1887,20.24,21.22,42.92,0,110.8,13.24,21.07,134.7
"2009-08-25 00:11:30",1181112,6.084,175.7,3.386,0.314,18.81,108.1887,20.24,21.21,43.64,0,110.8,13.24,21.07,137.7
"2009-08-25 00:12:00",1181113,6.569,177.1,2.094,0.326,18.8,108.1918,20.25,21.22,44.28,0,110.8,13.24,21.07,139.1
"2009-08-25 00:12:30",1181114,7.908,178.7,1.272,0.771,19.08,108.1887,20.24,21.21,43.37,0,110.8,13.24,21.07,140.7
"2009-08-25 00:13:00",1181115,8.12,179.7,2.864,0.219,19.15,108.1663,20.19,21.2,43.1,0,110.8,13.24,21.01,141.7
"2009-08-25 00:13:30",1181116,7.796,177.8,3.304,0.405,19.3,108.1559,20.16,21.2,42.5,0,110.8,13.24,20.98,139.8
"2009-08-25 00:14:00",1181117,8.51,181.5,2.786,0.623,19.35,108.1586,20.17,21.19,42.07,0,110.8,13.24,20.99,143.5
"2009-08-25 00:14:30",1181118,8.51,180.1,1.439,0.382,19.33,108.141,20.12,21.15,42.14,0,110.8,13.24,20.94,142.1
"2009-08-25 00:15:00",1181119,8.67,182.7,2.666,0.349,19.46,108.125,20.08,21.16,40.83,0,110.8,13.25,20.90,144.7
"2009-08-25 00:15:30",1181120,8.32,184,2.165,0.512,19.48,108.1242,20.08,21.15,40.76,0,110.8,13.25,20.90,146.0
"2009-08-25 00:16:00",1181121,8.6,186.1,2.191,0.402,19.45,108.1248,20.08,21.12,40.66,0,110.8,13.25,20.90,148.1
"2009-08-25 00:16:30",1181122,8.63,186.9,2.766,0.294,19.44,108.1264,20.08,21.11,40.77,0,110.8,13.25,20.91,148.9
"2009-08-25 00:17:00",1181123,8.81,186.1,2.538,0.332,19.44,108.1273,20.09,21.08,40.79,0,110.8,13.25,20.91,148.1
"2009-08-25 00:17:30",1181124,9.06,187.6,1.729,0.156,19.45,108.1217,20.07,21.07,40.62,0,110.8,13.25,20.89,149.6
"2009-08-25 00:18:00",1181125,9.14,189.8,0.899,0.166,19.51,108.1161,20.06,21.07,40.61,0,110.8,13.25,20.88,151.8
"2009-08-25 00:18:30",1181126,8.87,185.9,2.57,0.35,19.38,108.1105,20.04,21.06,40.39,0,110.8,13.25,20.87,147.9
"2009-08-25 00:19:00",1181127,9.03,184.6,2.576,0.207,19.27,108.0979,20.01,21.04,41.75,0,110.8,13.25,20.83,146.6
"2009-08-25 00:19:30",1181128,9.02,184.8,1.783,0.149,19.3,108.0956,20.01,21.04,41.5,0,110.8,13.25,20.83,146.8
"2009-08-25 00:20:00",1181129,8.94,182.7,1.33,0.188,19.2,108.0947,20,21.02,41.64,0,110.8,13.25,20.82,144.7
"2009-08-25 00:20:30",1181130,8.71,185.5,1.035,0.187,19.32,108.0962,20.01,21.01,40.77,0,110.8,13.25,20.83,147.5
"2009-08-25 00:21:00",1181131,8.71,186.2,1.619,0.335,19.32,108.0965,20.01,21,40.65,0,110.8,13.25,20.83,148.2
"2009-08-25 00:21:30",1181132,9.17,185.3,0.597,0.119,19.31,108.0968,20.01,21,41.46,0,110.8,13.25,20.83,147.3
"2009-08-25 00:22:00",1181133,9.15,184.5,0.529,0.149,19.28,108.094,20,20.99,41.47,0,110.8,13.25,20.82,146.5
"2009-08-25 00:22:30",1181134,9.22,183.2,0.626,0.184,19.28,108.082,19.97,20.98,41.52,0,110.8,13.25,20.79,145.2
"2009-08-25 00:23:00",1181135,9.24,185.4,1.26,0.124,19.28,108.0735,19.95,20.97,42.16,0,110.8,13.25,20.77,147.4
"2009-08-25 00:23:30",1181136,9.48,185.3,1.331,0.26,19.29,108.0688,19.94,20.96,42.33,0,110.8,13.25,20.76,147.3
"2009-08-25 00:24:00",1181137,9.56,184.4,1.267,0.328,19.24,108.0649,19.93,20.94,43.32,0,110.8,13.25,20.75,146.4
"2009-08-25 00:24:30",1181138,10.29,184,1.021,0.183,19.15,108.0655,19.93,20.95,42.66,0,110.8,13.25,20.75,146.0
"2009-08-25 00:25:00",1181139,10.15,184.6,0.805,0.118,19.14,108.0658,19.93,20.94,42.67,0,110.8,13.25,20.75,146.6
"2009-08-25 00:25:30",1181140,10.44,183.4,1.24,0.186,19.06,108.0652,19.93,20.93,42.99,0,110.8,13.25,20.75,145.4
"2009-08-25 00:26:00",1181141,10.75,183.2,0.966,0.174,19.03,108.0686,19.94,20.92,43.06,0,110.8,13.25,20.76,145.2
"2009-08-25 00:26:30",1181142,10.82,183.1,0.422,0.193,19.11,108.0669,19.93,20.92,42.97,0,110.8,13.25,20.75,145.1
"2009-08-25 00:27:00",1181143,10.55,183.8,0.523,0.111,19.15,108.0557,19.9,20.91,42.83,0,110.8,13.25,20.72,145.8
"2009-08-25 00:27:30",1181144,10.35,185,0.899,0.218,19.18,108.0388,19.86,20.9,43.07,0,110.8,13.25,20.68,147.0
"2009-08-25 00:28:00",1181145,10.09,185.6,0.71,0.177,19.22,108.0366,19.85,20.88,43.12,0,110.8,13.25,20.67,147.6
"2009-08-25 00:28:30",1181146,9.89,185.9,0.98,0.169,19.2,108.0363,19.85,20.85,43.18,0,110.8,13.25,20.67,147.9
"2009-08-25 00:29:00",1181147,9.55,187.5,0.789,0.168,19.25,108.0375,19.86,20.86,43.55,0,110.8,13.25,20.68,149.5
"2009-08-25 00:29:30",1181148,9.99,187.8,0.907,0.28,19.2,108.0344,19.85,20.83,43.74,0,110.8,13.25,20.67,149.8
"2009-08-25 00:30:00",1181149,10.04,187,0.9,0.236,19.17,108.0257,19.83,20.81,44.02,0,110.8,13.25,20.65,149.0
"2009-08-25 00:30:30",1181150,9.69,188.1,1.075,0.261,19.21,108.0068,19.78,20.8,43.96,0,110.8,13.25,20.60,150.1
"2009-08-25 00:31:00",1181151,9.42,186.3,1.383,0.345,19.14,108.004,19.77,20.81,43.98,0,110.8,13.25,20.59,148.3
"2009-08-25 00:31:30",1181152,9.03,183.5,1.794,0.192,19.09,108.004,19.77,20.77,44.1,0,110.8,13.25,20.59,145.5
"2009-08-25 00:32:00",1181153,9.12,183.7,1.661,0.266,19.11,108.004,19.77,20.77,43.97,0,110.8,13.25,20.59,145.7
"2009-08-25 00:32:30",1181154,9.34,185.1,1.57,0.235,19.14,107.9936,19.74,20.77,44.14,0,110.8,13.25,20.56,147.1
"2009-08-25 00:33:00",1181155,8.97,184.9,1.481,0.215,19.14,107.9787,19.71,20.74,44.27,0,110.8,13.25,20.53,146.9
"2009-08-25 00:33:30",1181156,9.4,185.3,1.204,0.373,19.11,107.9703,19.68,20.71,44.4,0,110.8,13.25,20.50,147.3
"2009-08-25 00:34:00",1181157,10.11,186.4,0.803,0.169,19.09,107.9703,19.68,20.72,44.63,0,110.8,13.25,20.50,148.4
"2009-08-25 00:34:30",1181158,9.6,188.1,1.231,0.35,19.14,107.9703,19.68,20.71,44.78,0,110.8,13.25,20.50,150.1
"2009-08-25 00:35:00",1181159,9.59,186,0.738,0.171,19.06,107.9703,19.68,20.69,44.96,0,110.8,13.26,20.50,148.0
"2009-08-25 00:35:30",1181160,9.77,185.8,0.621,0.208,19.03,107.9663,19.67,20.68,45.2,0,110.8,13.26,20.49,147.8
"2009-08-25 00:36:00",1181161,9.72,184.1,0.795,0.149,19.01,107.952,19.64,20.67,45.27,0,110.8,13.26,20.46,146.1
"2009-08-25 00:36:30",1181162,9.98,184.6,0.698,0.161,19.01,107.9371,19.6,20.65,45.3,0,110.8,13.26,20.42,146.6
"2009-08-25 00:37:00",1181163,10.15,184.7,1.078,0.208,18.98,107.9365,19.6,20.63,45.49,0,110.8,13.26,20.42,146.7
"2009-08-25 00:37:30",1181164,9.97,184.2,0.603,0.186,18.97,107.9365,19.6,20.62,45.39,0,110.8,13.26,20.42,146.2
"2009-08-25 00:38:00",1181165,9.78,183.5,0.782,0.142,18.93,107.9362,19.6,20.6,45.83,0,110.8,13.26,20.42,145.5
"2009-08-25 00:38:30",1181166,9.43,185.3,1.134,0.233,19.09,107.9255,19.57,20.6,45.33,0,110.8,13.26,20.39,147.3
"2009-08-25 00:39:00",1181167,9.34,185.8,1.108,0.161,19.05,107.9092,19.53,20.57,45.26,0,110.8,13.26,20.35,147.8
"2009-08-25 00:39:30",1181168,9.41,185.2,1.093,0.118,19.03,107.9027,19.51,20.56,45.38,0,110.8,13.26,20.33,147.2
"2009-08-25 00:40:00",1181169,9.26,185,1.048,0.169,19.04,107.9027,19.51,20.54,45.25,0,110.8,13.26,20.33,147.0
"2009-08-25 00:40:30",1181170,9.15,186.6,1.058,0.158,19.06,107.9025,19.51,20.53,45.34,0,110.8,13.26,20.33,148.6
"2009-08-25 00:41:00",1181171,8.98,187.2,1.264,0.139,19.14,107.8968,19.49,20.5,45.34,0,110.8,13.26,20.31,149.2
"2009-08-25 00:41:30",1181172,9.11,186.8,1.11,0.167,19.07,107.8816,19.46,20.49,45.56,0,110.8,13.26,20.28,148.8
"2009-08-25 00:42:00",1181173,8.97,187.8,1.256,0.118,19.06,107.8692,19.42,20.49,45.74,0,110.8,13.26,20.24,149.8
"2009-08-25 00:42:30",1181174,9,188.5,0.751,0.092,19.05,107.869,19.42,20.47,46.2,0,110.8,13.26,20.24,150.5
"2009-08-25 00:43:00",1181175,8.97,189.7,0.518,0.135,19.04,107.869,19.42,20.47,46.11,0,110.8,13.25,20.24,151.7
"2009-08-25 00:43:30",1181176,9.18,190.3,0.677,0.102,18.97,107.869,19.42,20.45,46.4,0,110.8,13.25,20.24,152.3
"2009-08-25 00:44:00",1181177,9.34,192.3,0.455,0.101,18.92,107.869,19.42,20.44,46.64,0,110.8,13.25,20.24,154.3
"2009-08-25 00:44:30",1181178,9.24,192.2,0.453,0.123,18.98,107.8684,19.42,20.42,46.73,0,110.8,13.25,20.24,154.2
"2009-08-25 00:45:00",1181179,9.38,190.9,0.557,0.09,18.94,107.8639,19.41,20.43,46.81,0,110.8,13.25,20.23,152.9
"2009-08-25 00:45:30",1181180,9.38,192.2,0.693,0.1,18.87,107.8479,19.37,20.39,46.82,0,110.8,13.25,20.19,154.2
"2009-08-25 00:46:00",1181181,9.22,191.7,0.628,0.112,18.91,107.836,19.34,20.41,46.97,0,110.8,13.25,20.16,153.7
"2009-08-25 00:46:30",1181182,9.21,191.5,0.591,0.12,18.95,107.8352,19.34,20.39,46.92,0,110.7,13.25,20.16,153.5
"2009-08-25 00:47:00",1181183,9.17,191.7,1.07,0.142,18.95,107.8352,19.34,20.38,46.83,0,110.8,13.25,20.16,153.7
"2009-08-25 00:47:30",1181184,9.15,191.3,1.193,0.142,18.99,107.8352,19.34,20.37,46.64,0,110.7,13.25,20.16,153.3
"2009-08-25 00:48:00",1181185,9.11,192.2,1.38,0.197,18.87,107.8349,19.34,20.35,46.46,0,110.7,13.25,20.16,154.2
"2009-08-25 00:48:30",1181186,9.24,190.2,1.195,0.4,18.86,107.8312,19.33,20.34,46.63,0,110.8,13.26,20.15,152.2
"2009-08-25 00:49:00",1181187,9.22,190.5,1.112,0.198,18.81,107.8138,19.28,20.33,46.81,0,110.7,13.26,20.10,152.5
"2009-08-25 00:49:30",1181188,9.24,191.2,0.654,0.129,18.87,107.8023,19.25,20.32,46.91,0,110.7,13.26,20.07,153.2
"2009-08-25 00:50:00",1181189,9.2,191.5,0.749,0.081,18.93,107.8014,19.25,20.29,46.82,0,110.7,13.26,20.07,153.5
"2009-08-25 00:50:30",1181190,9.1,190.8,0.727,0.111,18.87,107.8014,19.25,20.29,47.15,0,110.7,13.26,20.07,152.8
"2009-08-25 00:51:00",1181191,8.91,190.5,0.632,0.082,18.82,107.8014,19.25,20.27,47.07,0,110.7,13.26,20.07,152.5
"2009-08-25 00:51:30",1181192,8.95,190.8,0.907,0.147,18.82,107.7978,19.24,20.25,47.19,0,110.7,13.26,20.06,152.8
"2009-08-25 00:52:00",1181193,9.05,190.2,0.765,0.15,18.9,107.7814,19.2,20.25,47.11,0,110.7,13.26,20.02,152.2
"2009-08-25 00:52:30",1181194,9.06,190.1,0.933,0.102,18.92,107.7685,19.17,20.24,46.89,0,110.7,13.26,19.98,152.1
"2009-08-25 00:53:00",1181195,9,190,0.709,0.172,18.91,107.7676,19.16,20.22,46.6,0,110.7,13.26,19.98,152.0
"2009-08-25 00:53:30",1181196,9.17,190.5,0.741,0.218,18.86,107.7676,19.16,20.2,46.36,0,110.7,13.26,19.98,152.5
"2009-08-25 00:54:00",1181197,9.11,189.9,0.669,0.103,18.95,107.7676,19.16,20.19,46.32,0,110.7,13.26,19.98,151.9
"2009-08-25 00:54:30",1181198,9.09,190.6,0.818,0.27,18.9,107.766,19.16,20.17,46.22,0,110.7,13.26,19.98,152.6
"2009-08-25 00:55:00",1181199,9.17,190.9,0.871,0.122,18.85,107.7496,19.12,20.17,46.33,0,110.7,13.26,19.94,152.9
"2009-08-25 00:55:30",1181200,9.21,191.5,0.598,0.077,18.87,107.7367,19.08,20.16,46.38,0,110.7,13.26,19.90,153.5
"2009-08-25 00:56:00",1181201,9.45,191.4,0.534,0.087,18.71,107.7339,19.08,20.14,46.41,0,110.7,13.26,19.90,153.4
"2009-08-25 00:56:30",1181202,9.32,191.8,0.452,0.09,18.77,107.7339,19.08,20.12,46.51,0,110.7,13.26,19.90,153.8
"2009-08-25 00:57:00",1181203,9.24,191.6,0.515,0.061,18.84,107.7342,19.08,20.11,46.49,0,110.7,13.26,19.90,153.6
"2009-08-25 00:57:30",1181204,9.17,191.6,0.574,0.06,18.85,107.7348,19.08,20.1,46.53,0,110.7,13.26,19.90,153.6
"2009-08-25 00:58:00",1181205,9.17,191,0.415,0.056,18.84,107.7333,19.08,20.1,46.55,0,110.7,13.26,19.89,153.0
"2009-08-25 00:58:30",1181206,9.12,191.3,0.514,0.102,18.84,107.7238,19.05,20.1,46.67,0,110.7,13.26,19.87,153.3
"2009-08-25 00:59:00",1181207,8.95,191.8,0.64,0.116,18.77,107.7114,19.02,20.08,46.6,0,110.7,13.26,19.84,153.8
"2009-08-25 00:59:30",1181208,8.89,192.3,0.471,0.16,18.81,107.706,19.01,20.06,46.64,0,110.7,13.26,19.82,154.3
"2009-08-25 01:00:00",1181209,8.83,192,0.43,0.098,18.78,107.7015,18.99,20.06,46.63,0,110.7,13.26,19.81,154.0
"2009-08-25 01:00:30",1181210,9.04,192.8,0.561,0.082,18.89,107.7013,18.99,20.06,46.66,0,110.7,13.26,19.81,154.8
"2009-08-25 01:01:00",1181211,8.98,192.5,0.523,0.069,18.84,107.7025,19,20.05,46.69,0,110.7,13.26,19.81,154.5
"2009-08-25 01:01:30",1181212,8.87,193.1,0.479,0.098,18.78,107.7034,19,20.04,46.7,0,110.7,13.26,19.82,155.1
"2009-08-25 01:02:00",1181213,9,193.1,0.263,0.138,18.92,107.7031,19,20.03,46.74,0,110.7,13.26,19.82,155.1
"2009-08-25 01:02:30",1181214,8.99,193.4,0.528,0.055,18.88,107.7062,19.01,20.03,47.07,0,110.7,13.26,19.82,155.4
"2009-08-25 01:03:00",1181215,8.94,193.2,0.701,0.106,18.77,107.7083,19.01,20.01,47.41,0,110.7,13.26,19.83,155.2
"2009-08-25 01:03:30",1181216,9.01,193.8,0.522,0.131,18.9,107.7056,19,20,47.52,0,110.7,13.26,19.82,155.8
"2009-08-25 01:04:00",1181217,9.05,193.6,0.675,0.102,18.92,107.7045,19,20,47.82,0,110.7,13.26,19.82,155.6
"2009-08-25 01:04:30",1181218,8.81,193.5,0.78,0.188,18.82,107.6914,18.97,20.01,47.65,0,110.7,13.26,19.79,155.5
"2009-08-25 01:05:00",1181219,8.67,192.6,0.817,0.149,18.82,107.688,18.96,20,47.6,0,110.7,13.26,19.78,154.6
"2009-08-25 01:05:30",1181220,8.78,192.3,0.581,0.077,18.69,107.6847,18.95,19.99,47.79,0,110.7,13.26,19.77,154.3
"2009-08-25 01:06:00",1181221,8.81,191.8,0.462,0.08,18.71,107.682,18.94,19.98,47.86,0,110.7,13.26,19.76,153.8
"2009-08-25 01:06:30",1181222,8.72,191,0.191,0.058,18.82,107.6824,18.94,19.98,47.85,0,110.7,13.27,19.76,153.0
"2009-08-25 01:07:00",1181223,8.6,190.6,0.558,0.09,18.98,107.6815,18.94,19.97,47.88,0,110.7,13.27,19.76,152.6
"2009-08-25 01:07:30",1181224,8.48,190.9,0.307,0.058,18.97,107.686,18.95,19.96,47.88,0,110.7,13.27,19.77,152.9
"2009-08-25 01:08:00",1181225,8.47,191.3,0.543,0.105,18.95,107.6872,18.96,19.94,47.83,0,110.7,13.27,19.78,153.3
"2009-08-25 01:08:30",1181226,8.45,190.9,0.351,0.054,19,107.6863,18.96,19.94,47.71,0,110.7,13.27,19.77,152.9
"2009-08-25 01:09:00",1181227,8.47,190.8,0.378,0.1,18.96,107.6869,18.96,19.94,47.64,0,110.7,13.27,19.77,152.8
"2009-08-25 01:09:30",1181228,8.42,190,0.746,0.052,18.94,107.69,18.96,19.93,47.61,0,110.7,13.27,19.78,152.0
"2009-08-25 01:10:00",1181229,8.28,188.8,0.245,0.082,18.93,107.6909,18.97,19.94,47.78,0,110.7,13.27,19.78,150.8
"2009-08-25 01:10:30",1181230,8.23,188.5,0.377,0.071,18.98,107.6918,18.97,19.92,47.7,0,110.7,13.27,19.79,150.5
"2009-08-25 01:11:00",1181231,8.28,188,0.393,0.051,18.9,107.691,18.97,19.92,47.85,0,110.7,13.27,19.79,150.0
"2009-08-25 01:11:30",1181232,8.29,187,0.752,0.039,18.89,107.6931,18.97,19.92,47.71,0,110.7,13.27,19.79,149.0
"2009-08-25 01:12:00",1181233,8.21,186.4,0.498,0.078,18.92,107.6908,18.97,19.93,47.61,0,110.7,13.27,19.78,148.4
"2009-08-25 01:12:30",1181234,8.17,186.6,0.513,0.05,18.94,107.689,18.96,19.91,47.62,0,110.7,13.27,19.78,148.6
"2009-08-25 01:13:00",1181235,8.24,186.6,0.499,0.044,18.89,107.6897,18.96,19.92,47.26,0,110.7,13.27,19.78,148.6
"2009-08-25 01:13:30",1181236,8.2,185.7,0.553,0.068,18.88,107.6909,18.97,19.91,47.05,0,110.7,13.27,19.78,147.7
"2009-08-25 01:14:00",1181237,8.2,184.6,0.734,0.075,18.9,107.6891,18.96,19.92,46.83,0,110.7,13.27,19.78,146.6
"2009-08-25 01:14:30",1181238,8.41,183.6,0.56,0.136,18.8,107.6906,18.97,19.9,46.46,0,110.7,13.27,19.78,145.6
"2009-08-25 01:15:00",1181239,8.47,184.8,0.427,0.062,18.76,107.6901,18.96,19.9,46.17,0,110.7,13.27,19.78,146.8
"2009-08-25 01:15:30",1181240,8.51,185.3,0.622,0.07,18.8,107.6896,18.96,19.91,45.99,0,110.7,13.27,19.78,147.3
"2009-08-25 01:16:00",1181241,8.64,184.4,0.526,0.06,18.77,107.6905,18.97,19.91,45.34,0,110.7,13.27,19.78,146.4
"2009-08-25 01:16:30",1181242,8.59,184.6,0.519,0.059,18.82,107.6903,18.97,19.91,45.1,0,110.7,13.27,19.78,146.6
"2009-08-25 01:17:00",1181243,8.61,184.1,0.639,0.059,18.8,107.6941,18.97,19.91,44.73,0,110.7,13.26,19.79,146.1
"2009-08-25 01:17:30",1181244,8.57,184.1,0.67,0.103,18.79,107.6904,18.97,19.9,44.47,0,110.7,13.26,19.78,146.1
"2009-08-25 01:18:00",1181245,8.71,183.5,0.74,0.126,18.86,107.6916,18.97,19.91,44.22,0,110.7,13.26,19.79,145.5
"2009-08-25 01:18:30",1181246,8.66,183.6,0.531,0.075,18.81,107.6951,18.98,19.9,43.77,0,110.7,13.26,19.80,145.6
"2009-08-25 01:19:00",1181247,8.52,185.3,0.755,0.089,18.86,107.6936,18.97,19.91,44.08,0,110.7,13.26,19.79,147.3
"2009-08-25 01:19:30",1181248,8.48,184.6,0.525,0.093,18.83,107.6967,18.98,19.91,44.25,0,110.7,13.26,19.80,146.6
"2009-08-25 01:20:00",1181249,8.38,184.8,0.598,0.092,18.83,107.6984,18.99,19.91,44.1,0,110.7,13.26,19.80,146.8
"2009-08-25 01:20:30",1181250,8.55,183.2,0.427,0.07,18.83,107.6987,18.99,19.91,43.86,0,110.7,13.26,19.81,145.2
"2009-08-25 01:21:00",1181251,8.67,182.5,0.341,0.064,18.83,107.7019,18.99,19.91,43.61,0,110.7,13.26,19.81,144.5
"2009-08-25 01:21:30",1181252,8.81,182.8,0.282,0.162,18.78,107.7016,18.99,19.91,43.82,0,110.7,13.26,19.81,144.8
"2009-08-25 01:22:00",1181253,8.78,182.5,0.348,0.095,18.8,107.7013,18.99,19.91,43.8,0,110.7,13.27,19.81,144.5
"2009-08-25 01:22:30",1181254,8.58,182.3,0.259,0.102,18.8,107.7027,19,19.93,43.45,0,110.7,13.27,19.82,144.3
"2009-08-25 01:23:00",1181255,8.53,182.5,0.327,0.081,18.81,107.7024,19,19.93,43.39,0,110.7,13.27,19.81,144.5
"2009-08-25 01:23:30",1181256,8.6,182.8,0.42,0.089,18.83,107.7027,19,19.93,43.36,0,110.7,13.27,19.82,144.8
"2009-08-25 01:24:00",1181257,8.44,183.5,0.529,0.079,18.85,107.7027,19,19.93,43.27,0,110.7,13.27,19.82,145.5
"2009-08-25 01:24:30",1181258,8.77,182.8,0.508,0.151,18.84,107.7027,19,19.94,43.5,0,110.7,13.27,19.82,144.8
"2009-08-25 01:25:00",1181259,8.73,182.7,0.648,0.115,18.8,107.7027,19,19.95,43.58,0,110.7,13.27,19.82,144.7
"2009-08-25 01:25:30",1181260,8.53,182.9,0.506,0.092,18.84,107.7027,19,19.93,43.4,0,110.7,13.27,19.82,144.9
"2009-08-25 01:26:00",1181261,8.58,182.5,0.642,0.126,18.82,107.7027,19,19.94,43.29,0,110.7,13.27,19.82,144.5
"2009-08-25 01:26:30",1181262,8.49,182.6,0.341,0.109,18.79,107.7027,19,19.93,43.14,0,110.7,13.27,19.82,144.6
"2009-08-25 01:27:00",1181263,8.16,183.7,0.889,0.175,18.83,107.7027,19,19.94,43.11,0,110.7,13.27,19.82,145.7
"2009-08-25 01:27:30",1181264,8.08,185,0.893,0.183,18.84,107.7027,19,19.95,43.34,0,110.7,13.27,19.82,147.0
"2009-08-25 01:28:00",1181265,7.875,185,1.315,0.137,18.83,107.7027,19,19.95,43.48,0,110.7,13.27,19.82,147.0
"2009-08-25 01:28:30",1181266,7.659,186.9,1.162,0.124,18.84,107.7027,19,19.96,43.55,0,110.7,13.27,19.82,148.9
"2009-08-25 01:29:00",1181267,7.954,187.6,0.627,0.106,18.9,107.7027,19,19.95,43.56,0,110.7,13.27,19.82,149.6
"2009-08-25 01:29:30",1181268,7.597,187.5,1.247,0.114,18.91,107.7027,19,19.97,43.69,0,110.7,13.27,19.82,149.5
"2009-08-25 01:30:00",1181269,7.779,187.3,1.114,0.164,18.88,107.7027,19,19.95,43.51,0,110.7,13.27,19.82,149.3
"2009-08-25 01:30:30",1181270,7.711,186.5,1,0.095,18.87,107.7035,19,19.97,43.3,0,110.7,13.27,19.82,148.5
"2009-08-25 01:31:00",1181271,7.677,185.8,0.506,0.099,18.85,107.7047,19,19.97,43.16,0,110.7,13.27,19.82,147.8
"2009-08-25 01:31:30",1181272,7.751,185.9,0.647,0.111,18.86,107.7114,19.02,19.97,42.71,0,110.7,13.27,19.84,147.9
"2009-08-25 01:32:00",1181273,7.7,185.4,0.583,0.063,18.84,107.7157,19.03,19.98,42.41,0,110.7,13.27,19.85,147.4
"2009-08-25 01:32:30",1181274,8.05,184.9,0.722,0.126,18.79,107.7213,19.04,19.99,42.72,0,110.7,13.27,19.86,146.9
"2009-08-25 01:33:00",1181275,8.31,185.3,0.583,0.107,18.71,107.7272,19.06,19.99,43.45,0,110.7,13.27,19.88,147.3
"2009-08-25 01:33:30",1181276,8.23,186.2,0.35,0.05,18.78,107.7325,19.07,20,43.85,0,110.7,13.27,19.89,148.2
"2009-08-25 01:34:00",1181277,7.989,184.2,0.717,0.065,18.87,107.7356,19.08,20.01,43.05,0,110.7,13.27,19.90,146.2
"2009-08-25 01:34:30",1181278,7.822,183.7,0.681,0.123,18.9,107.7356,19.08,20.01,42.39,0,110.7,13.27,19.90,145.7
"2009-08-25 01:35:00",1181279,7.986,183.6,0.591,0.167,18.89,107.7365,19.08,20.02,42.36,0,110.7,13.27,19.90,145.6
"2009-08-25 01:35:30",1181280,8.2,183.4,0.647,0.102,18.87,107.7365,19.08,20.01,42.53,0,110.7,13.27,19.90,145.4
"2009-08-25 01:36:00",1181281,8.56,182.2,0.563,0.132,18.75,107.7365,19.08,20.02,42.99,0,110.7,13.27,19.90,144.2
"2009-08-25 01:36:30",1181282,8.55,182.8,0.513,0.153,18.74,107.7365,19.08,20.02,43.39,0,110.7,13.27,19.90,144.8
"2009-08-25 01:37:00",1181283,8.84,182.3,0.464,0.082,18.73,107.7365,19.08,20.03,43.69,0,110.7,13.27,19.90,144.3
"2009-08-25 01:37:30",1181284,9.09,181.2,0.196,0.07,18.67,107.7365,19.08,20.04,45.92,0,110.7,13.27,19.90,143.2
"2009-08-25 01:38:00",1181285,9.02,181.5,0.462,0.079,18.69,107.7359,19.08,20.03,46.86,0,110.7,13.27,19.90,143.5
"2009-08-25 01:38:30",1181286,9.08,181.5,0.474,0.072,18.68,107.7356,19.08,20.02,48.28,0,110.7,13.27,19.90,143.5
"2009-08-25 01:39:00",1181287,9.13,181.9,0.483,0.073,18.7,107.7306,19.07,20.03,49.69,0,110.7,13.27,19.89,143.9
"2009-08-25 01:39:30",1181288,9.02,182,0.623,0.099,18.73,107.7193,19.04,20.05,50.79,0,110.7,13.27,19.86,144.0
"2009-08-25 01:40:00",1181289,8.79,182.9,0.636,0.121,18.79,107.7072,19.01,20.04,50.12,0,110.7,13.27,19.83,144.9
"2009-08-25 01:40:30",1181290,8.95,182.3,0.236,0.107,18.76,107.7027,19,20.02,50.89,0,110.7,13.27,19.82,144.3
"2009-08-25 01:41:00",1181291,8.8,182.9,0.214,0.082,18.75,107.7027,19,20.02,50.88,0,110.7,13.27,19.82,144.9
"2009-08-25 01:41:30",1181292,8.57,183.3,0.639,0.147,18.78,107.7027,19,20.01,50.55,0,110.7,13.27,19.82,145.3
"2009-08-25 01:42:00",1181293,8.92,182.2,0.321,0.066,18.7,107.7019,18.99,19.99,50.26,0,110.7,13.27,19.81,144.2
"2009-08-25 01:42:30",1181294,8.96,181.6,0.52,0.055,18.73,107.6937,18.97,19.98,50.77,0,110.7,13.27,19.79,143.6
"2009-08-25 01:43:00",1181295,8.93,181.6,0.519,0.091,18.7,107.6734,18.92,19.98,50.12,0,110.7,13.27,19.74,143.6
"2009-08-25 01:43:30",1181296,8.96,181.9,0.516,0.124,18.7,107.6689,18.91,19.95,49.52,0,110.7,13.27,19.73,143.9
"2009-08-25 01:44:00",1181297,9.01,180.2,0.317,0.105,18.65,107.6689,18.91,19.93,49.37,0,110.7,13.27,19.73,142.2
"2009-08-25 01:44:30",1181298,8.89,181,0.609,0.116,18.66,107.6602,18.89,19.91,49.14,0,110.7,13.27,19.71,143.0
"2009-08-25 01:45:00",1181299,8.79,181.2,0.424,0.113,18.64,107.6382,18.83,19.91,48.92,0,110.7,13.28,19.65,143.2
"2009-08-25 01:45:30",1181300,8.92,180.4,0.574,0.108,18.65,107.6351,18.82,19.88,49.07,0,110.7,13.28,19.64,142.4
"2009-08-25 01:46:00",1181301,8.83,181.1,0.617,0.097,18.6,107.6351,18.82,19.86,49.13,0,110.7,13.28,19.64,143.1
"2009-08-25 01:46:30",1181302,8.78,181.2,0.547,0.091,18.58,107.632,18.82,19.84,49.37,0,110.7,13.28,19.63,143.2
"2009-08-25 01:47:00",1181303,8.91,180.5,0.515,0.097,18.6,107.6185,18.78,19.83,49.55,0,110.7,13.28,19.60,142.5
"2009-08-25 01:47:30",1181304,8.79,180.5,0.512,0.068,18.57,107.6019,18.74,19.8,50.13,0,110.7,13.28,19.56,142.5